星链-3090 (STARLINK-3090 )

导读

STARLINK-3090是美国SpaceX星链星座中的卫星,于2021年9月14日发射,属于星链星座V1.5版本卫星,携带激光星间链路。星链旨在提供全球宽带互联网服务,STARLINK-3090运行于近地轨道,采用平板设计,搭载氪工质霍尔推进器,具备自主避撞能力,退役后会脱轨坠入大气层烧毁,服务全球联网。

Basic Information
目录编号:
49132
目录名称:
STARLINK-3090
国际标识:
2021-082C
轨道中心:
EARTH
卫星名称:
星链-3090
卫星全名:
星链-3090 (STARLINK-3090 )
卫星状态:
在轨 (已飞行1738 天)
发射日期:
2021-09-14 UTC
国别 :
美国 (US)
星等 :
--
Orbit Information
数据来源 国际轨道数据 AOE轨道数据
星历时间 2026-06-18T02:41:29+0800
15小时前
查看轨道信息
2026-06-18T05:00:00+0800
13小时前
查看轨道信息
半长轴 6950.196km 6950.184km
偏心率 0.0002744 0.0003013
轨道倾角 70.000° 70.001°
近地点辐角 268.717° 265.798°
升交点赤经 41.971° 41.728°
平近点角 91.367° 253.034°
近地点 570.151km 569.952km
远地点 573.967km 574.142km
周期 96.107分钟 96.107分钟
每日圈数 14.983291 14.98333
Detailed Information
固有亮度:
5
最大亮度:
2.5
卫星平台:
Starlink v1.5
覆盖范围:
全球
运营商:
太空探索技术公司
运营商所在国:
美国
制造商(研发单位):
太空探索技术公司
制造商所在国:
美国
使用方式:
暂无
Satellite Introduction
星链(Starlink)计划是由太空探索技术公司(SpaceX)提出的一个巨型低轨卫星互联网星座项目,计划在2019年至2024年间在太空搭建由约1.2万颗卫星组成的“星链”网络,其中1584颗将部署在地球上空550千米处的近地轨道,并从2020年开始工作。该卫星仍在工作。
2D Orbit Map
3D Orbit Map
Orbit Altitude Analysis Chart
Orbit Inclination Analysis Chart
Orbit Comprehensive Analysis Chart
View Comprehensive Chart